When you browse on this site, cookies collect data to enhance your experience and personalize the content and advertising you see.
Visit our Privacy Policy to learn more. By continuing to use the site, you agree to this use of cookies and data.
  • En España
  • Lista de países
  • Para 7 días
  • Temperatura del agua
  • El tiempo en el mapa
  • Informadores
  • user-avatar
    Iniciar sesión

    Tiempo cada hora Gweru

    Hoy, 23 Octubre, Miércoles

    Tiempo Temperatura Precipitaciones Viento Presión Humedad
    00:00 +19°C° 0 mm 4 mps 642 mmHg 84%
    01:00 +18°C° 0 mm 3 mps 641 mmHg 88%
    02:00 +18°C° 0 mm 3 mps 641 mmHg 91%
    03:00 +18°C° 0 mm 3 mps 641 mmHg 85%
    04:00 +19°C° 0 mm 3 mps 641 mmHg 78%
    05:00 +19°C° 0 mm 3 mps 642 mmHg 72%
    06:00 +22°C° 0 mm 4 mps 643 mmHg 61%
    07:00 +25°C° 0 mm 5 mps 643 mmHg 50%
    08:00 +28°C° 0 mm 5 mps 644 mmHg 39%
    09:00 +30°C° 0 mm 5 mps 645 mmHg 32%
    10:00 +34°C° 0 mm 5 mps 645 mmHg 24%
    11:00 +37°C° 0 mm 4 mps 645 mmHg 17%
    12:00 +37°C° 0 mm 4 mps 644 mmHg 16%
    13:00 +37°C° 0 mm 3 mps 644 mmHg 15%
    14:00 +38°C° 0 mm 3 mps 643 mmHg 15%
    15:00 +37°C° 0 mm 3 mps 643 mmHg 16%
    16:00 +36°C° 0 mm 3 mps 642 mmHg 16%
    17:00 +35°C° 0 mm 3 mps 642 mmHg 17%
    18:00 +31°C° 0 mm 2 mps 642 mmHg 20%
    19:00 +29°C° 0 mm 1 mps 642 mmHg 22%
    20:00 +27°C° 0 mm 1 mps 642 mmHg 25%
    21:00 +27°C° 0 mm 1 mps 642 mmHg 26%
    22:00 +26°C° 0 mm 1 mps 643 mmHg 26%
    23:00 +26°C° 0 mm 2 mps 643 mmHg 27%

    Mañana, 24 Octubre, Jueves

    Tiempo Temperatura Precipitaciones Viento Presión Humedad
    00:00 +26°C° 0 mm 2 mps 643 mmHg 27%
    01:00 +26°C° 0 mm 2 mps 643 mmHg 28%
    02:00 +26°C° 0 mm 2 mps 643 mmHg 29%
    03:00 +24°C° 0 mm 2 mps 642 mmHg 33%
    04:00 +23°C° 0 mm 2 mps 642 mmHg 36%
    05:00 +21°C° 0 mm 2 mps 642 mmHg 39%
    06:00 +25°C° 0 mm 3 mps 643 mmHg 35%
    07:00 +28°C° 0 mm 3 mps 645 mmHg 31%
    08:00 +32°C° 0 mm 4 mps 646 mmHg 26%
    09:00 +34°C° 0 mm 4 mps 646 mmHg 22%
    10:00 +36°C° 0 mm 3 mps 646 mmHg 18%
    11:00 +38°C° 0 mm 3 mps 646 mmHg 15%
    12:00 +38°C° 0 mm 3 mps 646 mmHg 14%
    13:00 +38°C° 0 mm 3 mps 645 mmHg 14%
    14:00 +38°C° 0 mm 3 mps 644 mmHg 13%
    15:00 +38°C° 0 mm 3 mps 644 mmHg 13%
    16:00 +38°C° 0 mm 3 mps 644 mmHg 12%
    17:00 +38°C° 0 mm 3 mps 643 mmHg 11%
    18:00 +35°C° 0 mm 3 mps 643 mmHg 14%
    19:00 +31°C° 0 mm 3 mps 643 mmHg 16%
    20:00 +28°C° 0 mm 3 mps 643 mmHg 19%
    21:00 +27°C° 0 mm 3 mps 643 mmHg 21%
    22:00 +27°C° 0 mm 4 mps 643 mmHg 23%
    23:00 +26°C° 0 mm 4 mps 643 mmHg 25%

    Pasado mañana, 25 Octubre, Viernes

    Tiempo Temperatura Precipitaciones Viento Presión Humedad
    00:00 +25°C° 0 mm 3 mps 643 mmHg 29%
    01:00 +24°C° 0 mm 3 mps 643 mmHg 33%
    02:00 +22°C° 0 mm 3 mps 642 mmHg 37%
    03:00 +22°C° 0 mm 3 mps 642 mmHg 39%
    04:00 +21°C° 0 mm 3 mps 643 mmHg 41%
    05:00 +20°C° 0 mm 3 mps 643 mmHg 43%
    06:00 +23°C° 0 mm 4 mps 644 mmHg 39%
    07:00 +27°C° 0 mm 4 mps 645 mmHg 36%
    08:00 +30°C° 0 mm 5 mps 646 mmHg 32%
    09:00 +33°C° 0 mm 4 mps 646 mmHg 27%
    10:00 +35°C° 0 mm 4 mps 646 mmHg 22%
    11:00 +38°C° 0 mm 3 mps 647 mmHg 17%
    12:00 +38°C° 0 mm 3 mps 646 mmHg 15%
    13:00 +39°C° 0 mm 2 mps 645 mmHg 14%
    14:00 +39°C° 0 mm 2 mps 645 mmHg 12%
    15:00 +39°C° 0 mm 2 mps 644 mmHg 12%
    16:00 +38°C° 0 mm 2 mps 644 mmHg 13%
    17:00 +37°C° 0 mm 2 mps 643 mmHg 13%
    18:00 +35°C° 0 mm 2 mps 643 mmHg 15%
    19:00 +32°C° 0 mm 2 mps 643 mmHg 17%
    20:00 +29°C° 0 mm 2 mps 643 mmHg 19%
    21:00 +28°C° 0 mm 2 mps 643 mmHg 22%
    22:00 +27°C° 0 mm 2 mps 643 mmHg 26%
    23:00 +26°C° 0 mm 3 mps 643 mmHg 29%

    26 Octubre, Sábado

    Tiempo Temperatura Precipitaciones Viento Presión Humedad
    00:00 +25°C° 0 mm 3 mps 642 mmHg 30%
    01:00 +24°C° 0 mm 3 mps 642 mmHg 32%
    02:00 +22°C° 0 mm 3 mps 642 mmHg 34%
    03:00 +22°C° 0 mm 3 mps 642 mmHg 36%
    04:00 +21°C° 0 mm 3 mps 642 mmHg 38%
    05:00 +21°C° 0 mm 2 mps 642 mmHg 40%
    06:00 +25°C° 0 mm 4 mps 643 mmHg 35%
    07:00 +28°C° 0 mm 5 mps 644 mmHg 31%
    08:00 +32°C° 0 mm 6 mps 645 mmHg 26%
    09:00 +34°C° 0 mm 5 mps 645 mmHg 23%
    10:00 +36°C° 0 mm 4 mps 646 mmHg 19%
    11:00 +39°C° 0 mm 2 mps 646 mmHg 15%
    12:00 +39°C° 0 mm 2 mps 645 mmHg 14%
    13:00 +39°C° 0 mm 3 mps 644 mmHg 14%
    14:00 +39°C° 0 mm 3 mps 644 mmHg 13%
    15:00 +38°C° 0 mm 3 mps 643 mmHg 13%
    16:00 +38°C° 0 mm 3 mps 643 mmHg 14%
    17:00 +37°C° 0 mm 4 mps 642 mmHg 15%
    18:00 +35°C° 0 mm 3 mps 642 mmHg 18%
    19:00 +31°C° 0 mm 3 mps 642 mmHg 21%
    20:00 +29°C° 0 mm 3 mps 642 mmHg 24%
    21:00 +28°C° 0 mm 3 mps 642 mmHg 26%
    22:00 +27°C° 0 mm 3 mps 642 mmHg 28%
    23:00 +27°C° 0 mm 3 mps 642 mmHg 30%

    27 Octubre, Domingo

    Tiempo Temperatura Precipitaciones Viento Presión Humedad
    00:00 +26°C° 0 mm 4 mps 642 mmHg 31%
    01:00 +25°C° 0 mm 4 mps 642 mmHg 31%
    02:00 +23°C° 0 mm 4 mps 641 mmHg 32%
    03:00 +24°C° 0 mm 3 mps 641 mmHg 34%
    04:00 +22°C° 0 mm 3 mps 642 mmHg 36%
    05:00 +21°C° 0 mm 3 mps 642 mmHg 38%
    06:00 +25°C° 0 mm 4 mps 643 mmHg 35%
    07:00 +27°C° 0 mm 4 mps 644 mmHg 31%
    08:00 +30°C° 0 mm 5 mps 644 mmHg 27%
    09:00 +33°C° 0 mm 4 mps 645 mmHg 24%
    10:00 +35°C° 0 mm 4 mps 645 mmHg 20%
    11:00 +38°C° 0 mm 4 mps 645 mmHg 17%
    12:00 +38°C° 0 mm 3 mps 644 mmHg 16%
    13:00 +38°C° 0 mm 2 mps 643 mmHg 16%
    14:00 +37°C° 0 mm 1 mps 643 mmHg 15%
    15:00 +37°C° 0 mm 2 mps 642 mmHg 17%
    16:00 +36°C° 0 mm 2 mps 642 mmHg 19%
    17:00 +34°C° 0 mm 3 mps 641 mmHg 21%
    18:00 +33°C° 0 mm 3 mps 641 mmHg 24%
    19:00 +30°C° 0 mm 3 mps 641 mmHg 27%
    20:00 +28°C° 0 mm 3 mps 641 mmHg 30%
    21:00 +27°C° 0 mm 3 mps 641 mmHg 33%
    22:00 +26°C° 0 mm 2 mps 641 mmHg 35%
    23:00 +25°C° 0 mm 2 mps 640 mmHg 37%

    28 Octubre, Lunes

    Tiempo Temperatura Precipitaciones Viento Presión Humedad
    00:00 +25°C° 0 mm 2 mps 640 mmHg 38%
    01:00 +24°C° 0 mm 2 mps 640 mmHg 39%
    02:00 +24°C° 0 mm 2 mps 639 mmHg 40%
    03:00 +23°C° 0 mm 2 mps 639 mmHg 41%
    04:00 +22°C° 0 mm 3 mps 639 mmHg 42%
    05:00 +21°C° 0 mm 3 mps 639 mmHg 42%
    06:00 +25°C° 0 mm 4 mps 640 mmHg 34%
    07:00 +28°C° 0 mm 5 mps 641 mmHg 27%
    08:00 +32°C° 0 mm 6 mps 642 mmHg 19%
    09:00 +34°C° 0 mm 5 mps 643 mmHg 17%
    10:00 +37°C° 0 mm 4 mps 643 mmHg 15%
    11:00 +40°C° 0 mm 4 mps 643 mmHg 13%
    12:00 +39°C° 0 mm 3 mps 642 mmHg 13%
    13:00 +39°C° 0 mm 2 mps 642 mmHg 13%
    14:00 +39°C° 0 mm 2 mps 641 mmHg 12%
    15:00 +39°C° 0 mm 2 mps 641 mmHg 13%
    16:00 +39°C° 0 mm 2 mps 641 mmHg 13%
    17:00 +38°C° 0 mm 2 mps 640 mmHg 13%
    18:00 +35°C° 0 mm 2 mps 640 mmHg 16%
    19:00 +31°C° 0 mm 2 mps 640 mmHg 20%
    20:00 +28°C° 0 mm 2 mps 639 mmHg 23%
    21:00 +28°C° 0 mm 2 mps 639 mmHg 24%
    22:00 +27°C° 0 mm 1 mps 639 mmHg 26%
    23:00 +26°C° 0 mm 1 mps 639 mmHg 28%

    29 Octubre, Martes

    Tiempo Temperatura Precipitaciones Viento Presión Humedad
    00:00 +26°C° 0 mm 2 mps 639 mmHg 29%
    01:00 +25°C° 0 mm 2 mps 639 mmHg 29%
    02:00 +25°C° 0 mm 2 mps 638 mmHg 30%
    03:00 +24°C° 0 mm 2 mps 639 mmHg 31%
    04:00 +23°C° 0 mm 1 mps 639 mmHg 32%
    05:00 +23°C° 0 mm 1 mps 639 mmHg 33%
    06:00 +26°C° 0 mm 2 mps 640 mmHg 27%
    07:00 +29°C° 0 mm 2 mps 641 mmHg 21%
    08:00 +33°C° 0 mm 3 mps 643 mmHg 14%
    09:00 +34°C° 0 mm 3 mps 643 mmHg 13%
    10:00 +36°C° 0 mm 3 mps 643 mmHg 12%
    11:00 +38°C° 0 mm 3 mps 643 mmHg 11%
    12:00 +39°C° 0 mm 3 mps 643 mmHg 11%
    13:00 +40°C° 0 mm 2 mps 643 mmHg 10%
    14:00 +42°C° 0 mm 2 mps 642 mmHg 10%
    15:00 +40°C° 0 mm 2 mps 642 mmHg 11%
    16:00 +39°C° 0 mm 2 mps 642 mmHg 12%
    17:00 +38°C° 0 mm 3 mps 642 mmHg 14%
    18:00 +34°C° 0 mm 4 mps 641 mmHg 30%
    19:00 +29°C° 0 mm 6 mps 641 mmHg 46%
    20:00 +24°C° 0 mm 7 mps 641 mmHg 62%
    21:00 +22°C° 0 mm 8 mps 641 mmHg 69%
    22:00 +21°C° 0 mm 8 mps 641 mmHg 75%
    23:00 +18°C° 0 mm 8 mps 641 mmHg 81%
    Mostrar más